BEIDOU-3 G1

Last updated on Mon Jun 22 2026 00:03:06 GMT+0000 (Coordinated Universal Time)

1 43683U 18085A 26172.50531091 -.00000111 00000+0 00000+0 0 9990 2 43683 2.8805 97.2530 0008152 350.3805 163.9159 1.00270433 28100
UTC large
Height (km)
Speed (km/s)
/
Latitude / Longitude
Inclination (degrees)
Orbital Period (minutes)
Azimuth
Elevation
Range (km)
Doppler Factor

Next 0 passes for location: London (51.5072 / 0.1276)

No passes found over London.
BEIDOU-3 G1